Location: Berville
(49.1893°N, 2.0748°E)
Time: 06:35:46
(UTC+00:00)

Cosmos 2074 Rocket - Pass Details

Date: 08 February 2023
Orbit: 967 x 985 km, 82.9° (Epoch: 21 March)

Event Time Altitude Azimuth Distance (km) Brightness Sun altitude
Rises 20:12:12 0° 348° (NNW) 3,703 7.4 -31.7°
Reaches altitude 10° 20:14:44 10° 346° (NNW) 2,752 6.7 -32.1°
Maximum altitude 20:20:57 64° 266° (W) 1,086 4.3 -33.1°
Enters shadow 20:21:11 64° 255° (WSW) 1,089 4.3 -33.1°
